TimeCST,TemperatureF,Dew PointF,Humidity,Sea Level PressureIn,VisibilityMPH,Wind Direction,Wind SpeedMPH,Gust SpeedMPH,PrecipitationIn,Events,Conditions,WindDirDegrees,DateUTC
12:53 AM,28.9,26.1,89,30.06,9.0,Calm,Calm,-,N/A,,Overcast,0,2012-12-08 06:53:00
1:53 AM,30.0,26.1,85,30.04,10.0,South,6.9,-,N/A,,Overcast,190,2012-12-08 07:53:00
2:53 AM,30.0,26.1,85,30.04,10.0,South,5.8,-,N/A,,Overcast,190,2012-12-08 08:53:00
3:53 AM,28.9,25.0,85,30.02,9.0,SSE,4.6,-,N/A,,Overcast,150,2012-12-08 09:53:00
5:53 AM,27.0,25.0,92,30.00,7.0,SSE,5.8,-,N/A,,Overcast,160,2012-12-08 11:53:00
6:53 AM,28.0,26.1,92,30.01,7.0,South,5.8,-,N/A,,Overcast,170,2012-12-08 12:53:00
7:53 AM,28.0,24.1,85,29.99,10.0,SE,6.9,-,N/A,,Mostly Cloudy,140,2012-12-08 13:53:00
8:06 AM,26.6,23.0,86,29.93,10.0,SE,8.1,-,N/A,,Scattered Clouds,140,2012-12-08 14:06:00
8:29 AM,24.8,23.0,93,29.93,2.5,SE,12.7,-,N/A,,Partly Cloudy,130,2012-12-08 14:29:00
8:33 AM,24.8,24.8,100,29.93,1.0,SE,11.5,-,N/A,,Mist,130,2012-12-08 14:33:00
8:40 AM,26.6,24.8,93,29.94,0.5,SSE,10.4,-,N/A,Fog,Light Freezing Fog,150,2012-12-08 14:40:00
8:53 AM,26.1,25.0,96,29.98,0.8,SE,15.0,-,N/A,,Overcast,140,2012-12-08 14:53:00
9:06 AM,26.6,24.8,93,29.92,2.0,SE,15.0,-,N/A,,Overcast,130,2012-12-08 15:06:00
9:24 AM,26.6,24.8,93,29.92,3.0,SE,16.1,-,N/A,,Overcast,130,2012-12-08 15:24:00
9:53 AM,28.0,26.1,92,29.97,6.0,SSE,12.7,-,N/A,,Overcast,160,2012-12-08 15:53:00
10:53 AM,28.9,26.1,89,29.97,10.0,SSE,18.4,-,N/A,,Overcast,160,2012-12-08 16:53:00
11:53 AM,28.9,26.1,89,29.95,10.0,South,19.6,-,N/A,,Overcast,170,2012-12-08 17:53:00
12:53 PM,28.9,26.1,89,29.92,10.0,SSE,19.6,-,N/A,,Overcast,160,2012-12-08 18:53:00
1:31 PM,28.4,26.6,93,29.83,2.5,SSE,18.4,-,0.00,Snow,Light Snow,150,2012-12-08 19:31:00
1:45 PM,28.4,26.6,93,29.83,4.0,SSE,18.4,-,0.00,Snow,Light Snow,150,2012-12-08 19:45:00
1:53 PM,28.9,26.1,89,29.87,6.0,SE,17.3,-,0.00,Snow,Light Snow,140,2012-12-08 19:53:00
2:11 PM,30.2,26.6,86,29.81,1.8,SE,20.7,-,0.00,Snow,Light Snow,140,2012-12-08 20:11:00
2:53 PM,28.9,27.0,92,29.84,1.0,SSE,17.3,-,0.00,Snow,Light Snow,150,2012-12-08 20:53:00
3:00 PM,28.4,26.6,93,29.79,0.5,SSE,18.4,-,0.00,Fog-Snow,Snow,150,2012-12-08 21:00:00
3:28 PM,28.4,26.6,93,29.77,1.2,SE,21.9,31.1,0.00,Snow,Light Snow,140,2012-12-08 21:28:00
3:43 PM,28.4,26.6,93,29.77,0.8,SSE,18.4,27.6,0.00,Snow,Light Snow,150,2012-12-08 21:43:00
3:53 PM,28.9,27.0,92,29.83,1.2,SSE,21.9,-,0.00,Snow,Light Snow,150,2012-12-08 21:53:00
4:16 PM,30.2,26.6,86,29.77,0.8,SSE,20.7,29.9,0.00,Snow,Light Snow,150,2012-12-08 22:16:00
4:42 PM,30.2,26.6,86,29.76,1.0,SE,20.7,-,0.00,Snow,Light Snow,140,2012-12-08 22:42:00
4:53 PM,30.0,27.0,88,29.79,1.8,SE,24.2,32.2,0.00,Snow,Light Snow,130,2012-12-08 22:53:00
4:59 PM,30.2,26.6,86,29.75,3.0,SE,27.6,33.4,0.00,,Overcast,130,2012-12-08 22:59:00
5:38 PM,30.2,26.6,86,29.76,3.0,SE,19.6,28.8,0.00,Snow,Light Snow,140,2012-12-08 23:38:00
5:45 PM,30.2,26.6,86,29.75,2.0,SE,20.7,26.5,0.00,Snow,Light Snow,140,2012-12-08 23:45:00
5:53 PM,30.0,27.0,88,29.80,1.5,SE,19.6,28.8,0.00,Snow,Light Snow,130,2012-12-08 23:53:00
6:07 PM,30.2,26.6,86,29.76,2.0,SE,21.9,27.6,0.00,Snow,Light Snow,140,2012-12-09 00:07:00
6:15 PM,30.2,26.6,86,29.76,1.0,SE,20.7,27.6,0.00,Snow,Light Snow,140,2012-12-09 00:15:00
6:24 PM,30.2,28.4,93,29.75,0.8,SE,20.7,-,0.00,Snow,Light Snow,140,2012-12-09 00:24:00
6:53 PM,30.9,28.0,89,29.81,1.8,South,13.8,-,0.00,Snow,Light Snow,170,2012-12-09 00:53:00
7:32 PM,32.0,28.4,87,29.76,4.0,SSE,18.4,-,0.00,Snow,Light Snow,160,2012-12-09 01:32:00
7:53 PM,32.0,28.0,85,29.81,5.0,SSE,19.6,-,0.00,,Overcast,160,2012-12-09 01:53:00
8:08 PM,32.0,28.4,87,29.76,5.0,SSE,18.4,-,N/A,,Overcast,160,2012-12-09 02:08:00
8:53 PM,30.9,28.0,89,29.80,5.0,SSE,13.8,25.3,N/A,,Mostly Cloudy,160,2012-12-09 02:53:00
9:05 PM,30.2,28.4,93,29.75,5.0,SSE,15.0,26.5,N/A,,Scattered Clouds,160,2012-12-09 03:05:00
9:53 PM,30.9,28.0,89,29.82,5.0,SSE,13.8,-,N/A,,Scattered Clouds,160,2012-12-09 03:53:00
10:53 PM,30.9,27.0,85,29.81,6.0,SSE,10.4,-,N/A,,Mostly Cloudy,150,2012-12-09 04:53:00
11:53 PM,28.9,27.0,92,29.83,6.0,SSE,9.2,-,N/A,,Partly Cloudy,160,2012-12-09 05:53:00